Weather History for KE38 - June, 2014

Change the Weather History Date:

Saturday, June 14, 2014

  Actual Average (KMRF) Record (KMRF)
Temperature  
Mean Temperature 80 °F -  
Max Temperature 94 °F 85 °F 100 °F (2011)
Min Temperature 67 °F 56 °F 53 °F (2003)
Cooling Degree Days 16    
Growing Degree Days 30 (Base 50)    
Moisture  
Dew Point 50 °F    
Average Humidity 37    
Maximum Humidity 67    
Minimum Humidity 18    
Precipitation  
Precipitation 0.03 in - - ()
Sea Level Pressure  
Sea Level Pressure 30.05 in    
Wind  
Wind Speed 11 mph (SSW)    
Max Wind Speed 25 mph    
Max Gust Speed 34 mph    
Visibility 10 miles    
Events Thunderstorm    
Averages and records for this station are not official NWS values.
T = Trace of Precipitation, MM = Missing Value Source: NWS Daily Summary

Daily Weather History Graph

Daily Weather History Graph

Search for Another Location

Airport or City:

Trip Planner

Search our weather history database for the weather conditions in past years. The results will help you decide how hot, cold, wet, or windy it might be!

Date:

Astronomy

Jun. 14, 2014 Rise Set
Actual Time 6:52 AM CDT 8:57 PM CDT
Civil Twilight 6:24 AM CDT 9:25 PM CDT
Nautical Twilight 5:51 AM CDT 9:59 PM CDT
Astronomical Twilight 5:15 AM CDT 10:35 PM CDT
Moon 10:31 PM CDT (6/14) 8:32 AM CDT (6/14)
Length of Visible Light 15h 00m
Length of Day
14h 05m
Waning Gibbous, 97% of the Moon is Illuminated
Jun 14
Waning Gibbous
Jun 19
Last Quarter
Jun 27
New
Jul 5
First Quarter
Jul 12
Full

Hourly Weather History & Observations

Time (CDT) Temp. Heat Index Dew Point Humidity Pressure Visibility Wind Dir Wind Speed Gust Speed Precip Events Conditions
12:15 AM 70.9 °F - 51.8 °F 51% 30.13 in 10.0 mi SW 5.8 mph - N/A   Clear
12:35 AM 71.1 °F - 51.1 °F 49% 30.13 in 10.0 mi WSW 9.2 mph - N/A   Clear
12:55 AM 71.4 °F - 50.5 °F 48% 30.13 in 10.0 mi WSW 9.2 mph - N/A   Clear
1:15 AM 72.0 °F - 50.0 °F 46% 30.13 in 10.0 mi WSW 6.9 mph - N/A   Clear
1:35 AM 72.0 °F - 49.8 °F 46% 30.13 in 10.0 mi SW 9.2 mph - N/A   Clear
1:55 AM 72.0 °F - 50.7 °F 47% 30.13 in 10.0 mi SW 5.8 mph 9.2 mph N/A   Scattered Clouds
2:15 AM 71.8 °F - 50.4 °F 47% 30.13 in 10.0 mi WSW 8.1 mph - N/A Thunderstorm Clear
2:35 AM 71.4 °F - 52.5 °F 51% 30.14 in 10.0 mi WSW 4.6 mph - N/A   Scattered Clouds
2:55 AM 71.6 °F - 51.8 °F 50% 30.15 in 10.0 mi South 3.5 mph - N/A   Scattered Clouds
3:15 AM 72.7 °F - 51.4 °F 47% 30.15 in 10.0 mi WNW 8.1 mph - N/A   Scattered Clouds
3:35 AM 72.9 °F - 51.6 °F 47% 30.15 in 10.0 mi WSW 8.1 mph - N/A   Clear
3:55 AM 68.0 °F - 56.7 °F 67% 30.15 in 10.0 mi East 4.6 mph - N/A   Clear
4:15 AM 69.4 °F - 54.1 °F 58% 30.15 in 10.0 mi SSW 4.6 mph - N/A   Clear
4:35 AM 67.6 °F - 54.7 °F 63% 30.14 in 10.0 mi SSW 4.6 mph - N/A   Clear
5:15 AM 68.7 °F - 53.6 °F 58% 30.13 in 10.0 mi SSW 6.9 mph - N/A   Clear
5:55 AM 70.7 °F - 52.0 °F 51% 30.11 in 10.0 mi South 12.7 mph - N/A   Clear
6:15 AM 72.5 °F - 51.3 °F 47% 30.10 in 10.0 mi SSW 15.0 mph 19.6 mph N/A   Clear
6:35 AM 72.7 °F - 50.9 °F 46% 30.11 in 10.0 mi SSW 12.7 mph - N/A   Clear
6:55 AM 71.8 °F - 51.1 °F 48% 30.11 in 10.0 mi SSW 9.2 mph - N/A   Clear
7:15 AM 72.5 °F - 50.9 °F 47% 30.11 in 10.0 mi South 8.1 mph - N/A   Clear
7:35 AM 72.1 °F - 51.1 °F 47% 30.10 in 10.0 mi South 11.5 mph - N/A   Clear
7:55 AM 73.0 °F - 51.1 °F 46% 30.10 in 10.0 mi SSW 15.0 mph - N/A   Clear
8:15 AM 73.4 °F - 51.8 °F 47% 30.11 in 10.0 mi SSW 6.9 mph - N/A   Clear
8:35 AM 73.6 °F - 51.8 °F 46% 30.11 in 10.0 mi SW 9.2 mph - N/A   Clear
8:55 AM 73.9 °F - 51.8 °F 46% 30.11 in 10.0 mi SSW 13.8 mph - N/A   Clear
9:15 AM 75.6 °F - 51.8 °F 43% 30.11 in 10.0 mi SW 13.8 mph - N/A   Clear
9:35 AM 78.1 °F - 51.6 °F 40% 30.10 in 10.0 mi SW 16.1 mph - N/A   Clear
9:55 AM 80.6 °F - 50.7 °F 35% 30.09 in 10.0 mi SW 13.8 mph 18.4 mph N/A   Clear
10:15 AM 79.9 °F - 50.5 °F 36% 30.09 in 10.0 mi SW 12.7 mph - N/A   Clear
10:35 AM 81.1 °F - 52.0 °F 36% 30.09 in 10.0 mi SW 16.1 mph 19.6 mph N/A   Clear
10:55 AM 82.2 °F - 51.4 °F 34% 30.09 in 10.0 mi SW 17.3 mph 21.9 mph N/A   Clear
11:15 AM 84.0 °F - 51.4 °F 32% 30.08 in 10.0 mi WSW 18.4 mph 21.9 mph N/A   Clear
11:35 AM 84.2 °F - 50.9 °F 32% 30.08 in 10.0 mi SW 16.1 mph 23.0 mph N/A   Clear
11:55 AM 86.0 °F - 50.7 °F 30% 30.07 in 10.0 mi SW 18.4 mph 24.2 mph N/A   Clear
12:15 PM 87.1 °F - 50.0 °F 28% 30.07 in 10.0 mi SW 16.1 mph 24.2 mph N/A   Clear
12:35 PM 89.2 °F - 47.8 °F 24% 30.07 in 10.0 mi SW 18.4 mph 24.2 mph N/A   Clear
12:55 PM 88.7 °F - 47.8 °F 24% 30.06 in 10.0 mi SW 17.3 mph 28.8 mph N/A   Clear
1:15 PM 90.3 °F - 46.0 °F 22% 30.06 in 10.0 mi SW 16.1 mph 23.0 mph N/A   Clear
1:35 PM 90.3 °F - 46.2 °F 22% 30.05 in 10.0 mi SW 16.1 mph 19.6 mph N/A   Clear
1:55 PM 90.7 °F - 46.9 °F 22% 30.04 in 10.0 mi SW 12.7 mph 25.3 mph N/A   Clear
2:15 PM 91.4 °F - 46.8 °F 21% 30.04 in 10.0 mi SW 10.4 mph 21.9 mph N/A   Clear
2:35 PM 91.8 °F - 46.8 °F 21% 30.03 in 10.0 mi WSW 12.7 mph 28.8 mph N/A   Clear
2:55 PM 92.3 °F - 46.4 °F 21% 30.02 in 10.0 mi WSW 16.1 mph 21.9 mph N/A   Clear
3:15 PM 92.5 °F - 46.2 °F 20% 30.01 in 10.0 mi South 11.5 mph 20.7 mph N/A   Clear
3:35 PM 91.6 °F - 45.5 °F 20% 30.00 in 10.0 mi WSW 11.5 mph 21.9 mph N/A   Clear
3:55 PM 94.8 °F - 46.6 °F 19% 30.00 in 10.0 mi SW 15.0 mph 20.7 mph N/A   Clear
4:15 PM 93.4 °F - 46.6 °F 20% 29.99 in 10.0 mi SW 10.4 mph 23.0 mph N/A   Clear
4:35 PM 93.7 °F - 46.0 °F 19% 29.99 in 10.0 mi SSW 17.3 mph 21.9 mph N/A   Clear
4:55 PM 93.7 °F - 43.9 °F 18% 29.98 in 10.0 mi South 12.7 mph 20.7 mph N/A   Clear
5:15 PM 94.1 °F - 44.1 °F 18% 29.97 in 10.0 mi South 9.2 mph 24.2 mph N/A   Clear
5:35 PM 94.1 °F - 43.9 °F 18% 29.96 in 10.0 mi SW 8.1 mph 16.1 mph N/A   Clear
5:55 PM 91.9 °F - 43.2 °F 18% 29.96 in 10.0 mi Calm Calm - N/A   Clear
6:15 PM 84.2 °F - 48.0 °F 28% 29.98 in 10.0 mi ENE 19.6 mph 34.5 mph N/A   Clear
6:35 PM 85.8 °F - 46.8 °F 26% 29.96 in 10.0 mi East 20.7 mph 27.6 mph N/A   Clear
6:55 PM 81.9 °F 81.4 °F 56.3 °F 41% 29.96 in 10.0 mi East 12.7 mph 19.6 mph 0.03 in   Clear
7:15 PM 85.1 °F 83.5 °F 53.4 °F 34% 29.96 in 10.0 mi East 8.1 mph - N/A   Clear
7:35 PM 86.9 °F 84.8 °F 53.1 °F 31% 29.95 in 10.0 mi SE 5.8 mph - N/A   Clear
7:55 PM 87.4 °F - 52.3 °F 30% 29.94 in 10.0 mi SE 3.5 mph - N/A   Clear
8:15 PM 86.9 °F - 51.1 °F 29% 29.93 in 10.0 mi SSE 6.9 mph - N/A   Clear
8:35 PM 86.2 °F - 50.7 °F 29% 29.94 in 10.0 mi SSE 10.4 mph - N/A   Clear
8:55 PM 83.7 °F - 51.1 °F 32% 29.95 in 10.0 mi SSE 12.7 mph 18.4 mph N/A   Clear
9:15 PM 81.1 °F - 50.7 °F 35% 29.96 in 10.0 mi SE 12.7 mph 17.3 mph N/A   Clear
9:35 PM 79.9 °F - 52.9 °F 39% 29.96 in 10.0 mi SSE 16.1 mph 28.8 mph N/A   Clear
9:55 PM 79.3 °F - 55.9 °F 44% 29.96 in 10.0 mi SSE 25.3 mph 29.9 mph N/A   Clear
10:15 PM 77.9 °F - 57.6 °F 49% 29.98 in 10.0 mi SSE 20.7 mph 27.6 mph N/A   Clear
10:35 PM 77.9 °F - 55.2 °F 45% 29.98 in 10.0 mi SSE 25.3 mph 31.1 mph N/A   Clear
10:55 PM 77.4 °F - 52.7 °F 42% 29.99 in 10.0 mi SSE 21.9 mph 27.6 mph N/A   Clear
11:15 PM 77.2 °F - 51.4 °F 41% 30.00 in 10.0 mi SSE 21.9 mph 29.9 mph N/A   Clear
11:35 PM 77.0 °F - 52.0 °F 42% 30.00 in 10.0 mi SSE 21.9 mph 29.9 mph N/A   Clear
11:55 PM 76.8 °F - 53.2 °F 44% 30.00 in 10.0 mi SSE 23.0 mph 29.9 mph N/A   Clear